Time,TemperatureF,DewpointF,PressureIn,WindDirection,WindDirectionDegrees,WindSpeedMPH,WindSpeedGustMPH,Humidity,HourlyPrecipIn,Conditions,Clouds,dailyrainin,SoftwareType,DateUTC
2013-03-07 07:00:00,38.4,35.7,29.93,North,0,4.0,10.0,90,0.00,,CLR,0.00,VWS V13.01,2013-03-07 15:00:00,
2013-03-07 07:15:00,39.0,36.3,29.92,North,0,4.0,9.0,90,0.00,,CLR,0.00,VWS V13.01,2013-03-07 15:15:00,
2013-03-07 07:30:00,39.5,36.8,29.93,North,0,6.0,11.0,90,0.00,,CLR,0.00,VWS V13.01,2013-03-07 15:30:00,
2013-03-07 07:45:00,40.2,37.5,29.93,North,0,6.0,11.0,90,0.00,,CLR,0.00,VWS V13.01,2013-03-07 15:45:00,
2013-03-07 08:00:00,40.9,38.2,29.93,NNW,333,11.0,12.0,90,0.00,,CLR,0.00,VWS V13.01,2013-03-07 16:00:00,
2013-03-07 08:15:00,42.0,39.0,29.93,NNW,343,7.0,13.0,89,0.00,,CLR,0.00,VWS V13.01,2013-03-07 16:15:00,
2013-03-07 08:30:00,43.1,39.2,29.93,NNW,339,6.0,13.0,86,0.00,,CLR,0.00,VWS V13.01,2013-03-07 16:30:00,
2013-03-07 08:45:00,44.8,40.3,29.93,NNW,343,8.0,12.0,84,0.00,,CLR,0.00,VWS V13.01,2013-03-07 16:45:00,
2013-03-07 09:00:00,47.1,41.6,29.93,NNW,342,7.0,13.0,81,0.00,,CLR,0.00,VWS V13.01,2013-03-07 17:00:00,
2013-03-07 09:15:00,49.5,41.9,29.92,NNW,344,11.0,14.0,75,0.00,,CLR,0.00,VWS V13.01,2013-03-07 17:15:00,
2013-03-07 09:30:00,51.2,42.5,29.92,North,355,7.0,14.0,72,0.00,,CLR,0.00,VWS V13.01,2013-03-07 17:30:00,
2013-03-07 09:45:00,53.2,43.3,29.92,NNW,340,5.0,14.0,69,0.00,,CLR,0.00,VWS V13.01,2013-03-07 17:45:00,
2013-03-07 10:00:00,54.1,43.4,29.92,NW,306,6.0,14.0,67,0.00,,CLR,0.00,VWS V13.01,2013-03-07 18:00:00,
2013-03-07 10:15:00,55.1,43.2,29.92,NW,315,7.0,11.0,64,0.00,,CLR,0.00,VWS V13.01,2013-03-07 18:15:00,
2013-03-07 10:45:00,56.1,42.4,29.92,NW,317,6.0,13.0,60,0.00,,CLR,0.00,VWS V13.01,2013-03-07 18:45:00,
2013-03-07 10:50:00,56.1,42.4,29.92,NW,315,8.0,13.0,60,0.00,,CLR,0.00,VWS V13.01,2013-03-07 18:50:00,
2013-03-07 10:51:00,56.0,41.9,29.92,NNW,343,6.0,7.0,59,0.00,,CLR,0.00,VWS V13.01,2013-03-07 18:51:00,
2013-03-07 10:57:00,55.7,42.5,29.92,NW,313,12.0,13.0,61,0.00,,CLR,0.00,VWS V13.01,2013-03-07 18:57:00,
2013-03-07 11:04:00,55.6,42.4,29.92,North,355,0.0,13.0,61,0.00,,CLR,0.00,VWS V13.01,2013-03-07 19:04:00,
2013-03-07 11:10:00,55.8,42.6,29.92,NNW,348,5.0,11.0,61,0.00,,CLR,0.00,VWS V13.01,2013-03-07 19:10:00,
2013-03-07 11:16:00,56.3,43.0,29.92,NNW,342,12.0,13.0,61,0.00,,CLR,0.00,VWS V13.01,2013-03-07 19:16:00,
2013-03-07 11:22:00,56.8,43.5,29.91,North,350,4.0,10.0,61,0.00,,CLR,0.00,VWS V13.01,2013-03-07 19:22:00,
2013-03-07 11:29:00,57.6,43.8,29.92,NNW,348,8.0,10.0,60,0.00,,CLR,0.00,VWS V13.01,2013-03-07 19:29:00,
2013-03-07 11:35:00,58.0,42.9,29.91,NW,325,7.0,13.0,57,0.00,,CLR,0.00,VWS V13.01,2013-03-07 19:35:00,
2013-03-07 11:41:00,58.2,41.7,29.91,NNW,327,6.0,12.0,54,0.00,,CLR,0.00,VWS V13.01,2013-03-07 19:41:00,
2013-03-07 11:47:00,58.1,42.0,29.91,NW,315,8.0,12.0,55,0.00,,CLR,0.00,VWS V13.01,2013-03-07 19:47:00,
2013-03-07 11:53:00,58.1,42.5,29.91,NNW,331,9.0,10.0,56,0.00,,CLR,0.00,VWS V13.01,2013-03-07 19:53:00,
2013-03-07 11:59:00,58.3,41.3,29.91,NE,42,3.0,10.0,53,0.00,,CLR,0.00,VWS V13.01,2013-03-07 19:59:00,
2013-03-07 12:05:00,58.5,41.5,29.90,NNW,332,4.0,11.0,53,0.00,,CLR,0.00,VWS V13.01,2013-03-07 20:05:00,
2013-03-07 12:10:00,58.9,42.3,29.90,NW,322,8.0,8.0,54,0.00,,CLR,0.00,VWS V13.01,2013-03-07 20:10:00,
2013-03-07 12:16:00,59.6,42.5,29.90,NNW,345,2.0,11.0,53,0.00,,CLR,0.00,VWS V13.01,2013-03-07 20:16:00,
2013-03-07 12:22:00,60.0,40.3,29.90,WNW,301,2.0,12.0,48,0.00,,CLR,0.00,VWS V13.01,2013-03-07 20:22:00,
2013-03-07 12:28:00,60.2,41.0,29.89,North,360,4.0,12.0,49,0.00,,CLR,0.00,VWS V13.01,2013-03-07 20:28:00,
2013-03-07 12:34:00,60.4,41.2,29.89,NNW,331,2.0,12.0,49,0.00,,CLR,0.00,VWS V13.01,2013-03-07 20:34:00,
2013-03-07 12:40:00,60.4,41.2,29.89,NNW,329,2.0,8.0,49,0.00,,CLR,0.00,VWS V13.01,2013-03-07 20:40:00,
2013-03-07 12:46:00,60.3,41.1,29.89,NNW,333,8.0,8.0,49,0.00,,CLR,0.00,VWS V13.01,2013-03-07 20:46:00,
2013-03-07 12:52:00,60.2,39.9,29.89,NW,306,1.0,7.0,47,0.00,,CLR,0.00,VWS V13.01,2013-03-07 20:52:00,
2013-03-07 12:58:00,60.4,41.2,29.89,NNW,348,6.0,11.0,49,0.00,,CLR,0.00,VWS V13.01,2013-03-07 20:58:00,
2013-03-07 13:04:00,60.7,40.4,29.88,NE,44,3.0,11.0,47,0.00,,CLR,0.00,VWS V13.01,2013-03-07 21:04:00,
2013-03-07 13:11:00,60.9,40.5,29.88,NNE,19,0.0,6.0,47,0.00,,CLR,0.00,VWS V13.01,2013-03-07 21:11:00,
2013-03-07 13:17:00,60.6,39.7,29.87,NNE,26,4.0,6.0,46,0.00,,CLR,0.00,VWS V13.01,2013-03-07 21:17:00,
2013-03-07 13:23:00,60.7,41.5,29.87,NNW,344,6.0,10.0,49,0.00,,CLR,0.00,VWS V13.01,2013-03-07 21:23:00,
2013-03-07 13:29:00,61.0,40.7,29.87,NNW,344,0.0,10.0,47,0.00,,CLR,0.00,VWS V13.01,2013-03-07 21:29:00,
2013-03-07 13:35:00,61.5,41.1,29.87,NNW,342,1.0,10.0,47,0.00,,CLR,0.00,VWS V13.01,2013-03-07 21:35:00,
2013-03-07 13:40:00,61.9,39.8,29.87,NNW,345,0.0,7.0,44,0.00,,CLR,0.00,VWS V13.01,2013-03-07 21:40:00,
2013-03-07 13:46:00,62.1,40.0,29.86,NNW,343,0.0,7.0,44,0.00,,CLR,0.00,VWS V13.01,2013-03-07 21:46:00,
2013-03-07 13:52:00,61.8,40.3,29.86,NNW,342,4.0,6.0,45,0.00,,CLR,0.00,VWS V13.01,2013-03-07 21:52:00,
2013-03-07 13:58:00,62.0,41.0,29.85,NNW,336,2.0,10.0,46,0.00,,CLR,0.00,VWS V13.01,2013-03-07 21:58:00,
2013-03-07 14:04:00,62.3,41.3,29.85,WNW,291,4.0,11.0,46,0.00,,CLR,0.00,VWS V13.01,2013-03-07 22:04:00,
2013-03-07 15:45:00,59.2,40.6,29.84,NE,51,0.0,2.0,50,0.00,,CLR,0.00,VWS V13.01,2013-03-07 23:45:00,
2013-03-07 16:15:00,58.4,39.3,29.84,NNW,344,0.0,9.0,49,0.00,,CLR,0.00,VWS V13.01,2013-03-08 00:15:00,
2013-03-07 16:30:00,58.4,39.3,29.83,NNW,344,0.0,8.0,49,0.00,,CLR,0.00,VWS V13.01,2013-03-08 00:30:00,
2013-03-07 16:45:00,58.1,38.0,29.83,NNW,335,1.0,7.0,47,0.00,,CLR,0.00,VWS V13.01,2013-03-08 00:45:00,
2013-03-07 17:00:00,57.5,39.0,29.83,NNW,335,0.0,5.0,50,0.00,,CLR,0.00,VWS V13.01,2013-03-08 01:00:00,
2013-03-07 17:21:00,56.9,38.5,29.83,NNW,335,0.0,5.0,50,0.00,,CLR,0.00,VWS V13.01,2013-03-08 01:21:00,
2013-03-07 17:30:00,56.2,38.8,29.83,NNW,336,4.0,8.0,52,0.00,,CLR,0.00,VWS V13.01,2013-03-08 01:30:00,
2013-03-07 17:51:00,55.2,38.4,29.83,NNW,339,6.0,8.0,53,0.00,,CLR,0.00,VWS V13.01,2013-03-08 01:51:00,
2013-03-07 17:57:00,54.7,37.9,29.83,NNW,346,5.0,9.0,53,0.00,,CLR,0.00,VWS V13.01,2013-03-08 01:57:00,
2013-03-07 18:03:00,54.4,38.6,29.83,NNW,345,2.0,9.0,55,0.00,,CLR,0.00,VWS V13.01,2013-03-08 02:03:00,
2013-03-07 18:09:00,54.0,38.2,29.83,NNW,344,2.0,7.0,55,0.00,,CLR,0.00,VWS V13.01,2013-03-08 02:09:00,
2013-03-07 18:15:00,53.6,38.3,29.83,NNW,344,0.0,7.0,56,0.00,,CLR,0.00,VWS V13.01,2013-03-08 02:15:00,
2013-03-07 18:21:00,53.2,38.4,29.83,NNW,344,5.0,7.0,57,0.00,,BKN070,0.00,VWS V13.01,2013-03-08 02:21:00,
2013-03-07 18:27:00,52.7,38.3,29.83,NNW,344,0.0,7.0,58,0.00,,BKN070,0.00,VWS V13.01,2013-03-08 02:27:00,
2013-03-07 18:33:00,52.4,38.5,29.83,NNW,344,0.0,7.0,59,0.00,,BKN070,0.00,VWS V13.01,2013-03-08 02:33:00,
2013-03-07 18:39:00,52.1,38.7,29.83,NNW,344,4.0,7.0,60,0.00,,BKN070,0.00,VWS V13.01,2013-03-08 02:39:00,
2013-03-07 18:45:00,51.8,38.4,29.83,NNW,343,6.0,7.0,60,0.00,,BKN070,0.00,VWS V13.01,2013-03-08 02:45:00,
2013-03-07 18:52:00,51.5,38.5,29.83,NNW,342,2.0,7.0,61,0.00,,BKN070,0.00,VWS V13.01,2013-03-08 02:52:00,
2013-03-07 18:58:00,51.3,38.7,29.83,NNW,342,2.0,7.0,62,0.00,,BKN070,0.00,VWS V13.01,2013-03-08 02:58:00,
2013-03-07 19:04:00,51.1,38.5,29.83,NNW,344,5.0,7.0,62,0.00,,BKN070,0.00,VWS V13.01,2013-03-08 03:04:00,
2013-03-07 19:10:00,51.0,38.9,29.83,NNW,344,6.0,7.0,63,0.00,,BKN070,0.00,VWS V13.01,2013-03-08 03:10:00,
2013-03-07 19:16:00,50.8,38.7,29.83,NNW,343,5.0,7.0,63,0.00,,BKN070,0.00,VWS V13.01,2013-03-08 03:16:00,
2013-03-07 19:22:00,50.7,39.0,29.83,NNW,342,4.0,6.0,64,0.00,,FEW095,0.00,VWS V13.01,2013-03-08 03:22:00,
2013-03-07 19:28:00,50.6,38.9,29.83,NNW,342,6.0,7.0,64,0.00,,FEW095,0.00,VWS V13.01,2013-03-08 03:28:00,
2013-03-07 19:35:00,50.4,38.7,29.83,NNW,340,7.0,8.0,64,0.00,,FEW095,0.00,VWS V13.01,2013-03-08 03:35:00,
2013-03-07 19:41:00,50.3,39.0,29.83,NNW,338,8.0,9.0,65,0.00,,FEW095,0.00,VWS V13.01,2013-03-08 03:41:00,
2013-03-07 19:52:00,50.1,39.2,29.83,NNW,338,5.0,8.0,66,0.00,,FEW095,0.00,VWS V13.01,2013-03-08 03:52:00,
2013-03-07 20:00:00,49.8,38.9,29.83,NNW,338,5.0,8.0,66,0.00,,FEW095,0.00,VWS V13.01,2013-03-08 04:00:00,
2013-03-07 20:15:00,49.4,38.5,29.83,NNW,337,7.0,8.0,66,0.00,,FEW095,0.00,VWS V13.01,2013-03-08 04:15:00,
2013-03-07 20:30:00,49.2,38.7,29.84,NNE,17,2.0,9.0,67,0.00,,FEW095,0.00,VWS V13.01,2013-03-08 04:30:00,
2013-03-07 20:52:00,49.1,38.6,29.84,North,10,0.0,0.0,67,0.00,,FEW095,0.00,VWS V13.01,2013-03-08 04:52:00,
2013-03-07 20:58:00,49.0,38.5,29.84,North,10,0.0,0.0,67,0.00,,FEW095,0.00,VWS V13.01,2013-03-08 04:58:00,
2013-03-07 21:01:00,48.9,38.8,29.84,North,10,3.0,3.0,68,0.00,,FEW095,0.00,VWS V13.01,2013-03-08 05:01:00,
2013-03-07 21:03:00,48.9,38.8,29.84,North,9,3.0,5.0,68,0.00,,FEW095,0.00,VWS V13.01,2013-03-08 05:03:00,
2013-03-07 21:06:00,48.8,38.7,29.84,North,9,0.0,3.0,68,0.00,,FEW095,0.00,VWS V13.01,2013-03-08 05:06:00,
2013-03-07 21:12:00,48.5,38.4,29.84,North,9,0.0,4.0,68,0.00,,FEW095,0.00,VWS V13.01,2013-03-08 05:12:00,
2013-03-07 21:13:00,48.4,38.3,29.84,North,9,0.0,4.0,68,0.00,,FEW095,0.00,VWS V13.01,2013-03-08 05:13:00,
2013-03-07 21:19:00,48.2,38.5,29.84,North,5,0.0,4.0,69,0.00,,FEW095,0.00,VWS V13.01,2013-03-08 05:19:00,
2013-03-07 21:25:00,48.0,38.3,29.84,North,5,0.0,0.0,69,0.00,,CLR,0.00,VWS V13.01,2013-03-08 05:25:00,
2013-03-07 21:31:00,47.7,38.4,29.84,North,5,0.0,0.0,70,0.00,,CLR,0.00,VWS V13.01,2013-03-08 05:31:00,
2013-03-07 21:37:00,47.4,38.1,29.84,North,5,0.0,0.0,70,0.00,,CLR,0.00,VWS V13.01,2013-03-08 05:37:00,
2013-03-07 21:43:00,47.1,38.2,29.84,North,5,0.0,0.0,71,0.00,,CLR,0.00,VWS V13.01,2013-03-08 05:43:00,
2013-03-07 21:50:00,46.9,38.0,29.84,North,5,0.0,0.0,71,0.00,,CLR,0.00,VWS V13.01,2013-03-08 05:50:00,
2013-03-07 22:00:00,46.1,37.6,29.83,North,0,0.0,0.0,72,0.00,,CLR,0.00,VWS V13.01,2013-03-08 06:00:00,
2013-03-07 22:15:00,45.5,37.4,29.83,North,0,0.0,0.0,73,0.00,,CLR,0.00,VWS V13.01,2013-03-08 06:15:00,
2013-03-07 22:30:00,45.2,37.4,29.83,North,0,1.0,4.0,74,0.00,,CLR,0.00,VWS V13.01,2013-03-08 06:30:00,
2013-03-07 22:45:00,45.6,38.2,29.84,North,0,4.0,6.0,75,0.00,,CLR,0.00,VWS V13.01,2013-03-08 06:45:00,
2013-03-07 23:00:00,45.9,38.4,29.83,NNW,338,1.0,6.0,75,0.00,,CLR,0.00,VWS V13.01,2013-03-08 07:00:00,
2013-03-07 23:15:00,46.0,38.2,29.82,NNW,338,3.0,7.0,74,0.00,,CLR,0.00,VWS V13.01,2013-03-08 07:15:00,
2013-03-07 23:30:00,46.2,38.4,29.82,NNW,338,2.0,6.0,74,0.00,,CLR,0.00,VWS V13.01,2013-03-08 07:30:00,
2013-03-07 23:45:00,46.3,38.5,29.82,NNW,338,0.0,0.0,74,0.00,,CLR,0.00,VWS V13.01,2013-03-08 07:45:00,